Terminal Aerodrome Forecast
Issued by NWS Green Bay, WI

Home | Current Version | Previous Version | Graphics & Text | Print | Product List | Glossary On
Versions: 1 2 3 4 5 6 7 8 9 10 11 12 13 14 15 16 17 18 19 20 21 22 23 24 25 26 27 28
000
FTUS43 KGRB 171129
TAFGRB
TAF
KGRB 171129Z 1712/1812 18005KT P6SM SCT250
     FM180200 23004KT 6SM BR FEW250 WS015/26035KT
     FM181000 27008KT P6SM SCT250 WS015/30035KT=

USA.gov is the U.S. government's official web portal to all federal, state and local government web resources and services.